This is the latest recevied weather packets stored in our database for station/object SP9MUF-14. If no packets are shown the sender has not sent any weather packets the latest 10 day(s).
| Time | Temp. | Humidity | Pressure | Rain* | Wind** | Luminosity | Snow |
|---|---|---|---|---|---|---|---|
| 1788091214 | 26.67° C | 45% | 1014.9 hPa | 0 mm | - | 126 W/m² | - |
| 1788090610 | 26.67° C | 44% | 1015 hPa | 0 mm | - | 596 W/m² | - |
| 1788090006 | 25.56° C | 44% | 1015 hPa | 0 mm | - | 123 W/m² | - |
| 1788089401 | 26.67° C | 47% | 1015.2 hPa | 0 mm | - | 622 W/m² | - |
| 1788089099 | 25.56° C | 47% | 1015.3 hPa | 0 mm | - | 633 W/m² | - |
| 1788088797 | 26.67° C | 47% | 1015.5 hPa | 0 mm | - | 614 W/m² | - |
| 1788088193 | 25.56° C | 46% | 1015.5 hPa | 0 mm | - | 618 W/m² | - |
| 1788087891 | 25.56° C | 49% | 1015.5 hPa | 0 mm | - | 624 W/m² | - |
| 1788087589 | 25.56° C | 48% | 1015.5 hPa | 0 mm | - | 621 W/m² | - |
| 1788086682 | 26.67° C | 46% | 1015.6 hPa | 0 mm | - | 632 W/m² | - |
| 1788086380 | 25.56° C | 47% | 1015.5 hPa | 0 mm | - | 640 W/m² | - |
| 1788086078 | 25.56° C | 47% | 1015.7 hPa | 0 mm | - | 643 W/m² | - |
| 1788085776 | 25.56° C | 48% | 1015.7 hPa | 0 mm | - | 633 W/m² | - |
| 1788085476 | 25.56° C | 48% | 1015.7 hPa | 0 mm | - | 634 W/m² | - |
| 1788085172 | 25.56° C | 50% | 1015.8 hPa | 0 mm | - | 625 W/m² | - |
| 1788084874 | 25° C | 51% | 1015.8 hPa | 0 mm | - | 617 W/m² | - |
| 1788084569 | 25° C | 52% | 1015.8 hPa | 0 mm | - | 617 W/m² | - |
| 1788084265 | 25° C | 51% | 1015.9 hPa | 0 mm | - | 615 W/m² | - |
| 1788083963 | 23.89° C | 51% | 1016 hPa | 0 mm | - | 606 W/m² | - |
| 1788083661 | 25° C | 53% | 1016 hPa | 0 mm | - | 602 W/m² | - |
| 1788082755 | 23.89° C | 54% | 1016.1 hPa | 0 mm | - | 593 W/m² | - |
| 1788082453 | 23.89° C | 57% | 1016.1 hPa | 0 mm | - | 582 W/m² | - |
| 1788081848 | 23.89° C | 56% | 1016.2 hPa | 0 mm | - | 583 W/m² | - |
| 1788081546 | 23.89° C | 56% | 1016.3 hPa | 0 mm | - | 578 W/m² | - |
| 1788080942 | 23.89° C | 56% | 1016.8 hPa | 0 mm | - | 572 W/m² | - |
* Rain latest hour (hover to see other rain measurements)
** Current wind speed in m/s (hover to see current wind gust speed)